Location: Foligno
(42.9600°N, 12.7050°E)
Time: 20:46:49
(UTC+02:00)

ISS - Visible Passes

Search period start: 21 July 2017 00:00
Search period end: 31 July 2017 00:00
Orbit: 400 x 408 km, 51.6° (Epoch: 21 July)

Date Brightness Start Highest point End Pass type
(mag) Time Alt. Az. Time Alt. Az. Time Alt. Az.
21 Jul -1.0 00:29:21 13° NE 00:29:21 13° NE 00:29:51 10° NE visible
21 Jul -1.0 02:01:57 12° NW 02:03:50 18° N 02:06:12 10° NE visible
21 Jul -1.2 03:38:28 10° NW 03:41:07 22° NNE 03:43:48 10° ENE visible
21 Jul -3.8 05:14:41 10° NW 05:17:58 86° NE 05:21:14 10° ESE visible
22 Jul -1.2 01:10:45 20° NNW 01:11:19 21° NNW 01:13:51 10° NE visible
22 Jul -1.0 02:46:11 10° NW 02:48:37 19° N 02:51:03 10° ENE visible
22 Jul -2.8 04:22:27 10° NW 04:25:38 49° NNE 04:28:49 10° ESE visible
22 Jul -4.0 22:38:53 10° SW 22:42:06 67° SE 22:45:20 10° ENE visible
23 Jul -1.6 00:16:01 10° WNW 00:18:49 26° NNW 00:21:36 10° NE visible
23 Jul -0.9 01:53:46 10° NW 01:56:04 18° N 01:58:22 10° NE visible
23 Jul -2.0 03:30:15 10° NW 03:33:14 32° NNE 03:36:14 10° E visible
23 Jul -3.4 05:06:40 10° WNW 05:09:45 40° SW 05:12:51 10° SSE visible
23 Jul -3.3 21:46:53 10° SSW 21:49:52 35° SE 21:52:52 10° ENE visible
23 Jul -2.2 23:23:19 10° W 23:26:20 35° NNW 23:29:23 10° NE visible
24 Jul -0.9 01:01:11 10° NW 01:03:29 18° N 01:05:49 10° NE visible
24 Jul -1.4 02:38:01 10° NW 02:40:45 24° NNE 02:43:30 10° ENE visible
24 Jul -4.0 04:14:15 10° WNW 04:17:31 78° SW 04:20:47 10° SE visible
24 Jul -3.2 22:30:44 10° WSW 22:33:56 56° NNW 22:37:09 10° NE visible
25 Jul -1.0 00:08:27 10° WNW 00:10:55 19° N 00:13:23 10° NE visible
25 Jul -1.1 01:45:43 10° NW 01:48:13 20° N 01:50:43 10° ENE visible
25 Jul -3.3 03:21:57 10° NW 03:25:11 59° NNE 03:28:25 10° ESE visible
25 Jul -2.3 04:59:05 10° W 05:01:22 18° SW 05:03:39 10° S visible
25 Jul -3.9 21:38:20 10° SW 21:41:35 83° SE 21:44:51 10° ENE visible
25 Jul -1.3 23:15:39 10° WNW 23:18:22 23° NNW 23:21:04 10° NE visible
26 Jul -0.9 00:53:19 10° NW 00:55:38 18° N 00:56:43 16° NNE visible
26 Jul -1.9 22:22:53 10° W 22:25:50 31° NNW 22:28:48 10° NE visible
27 Jul -0.9 00:00:44 10° NW 00:03:02 17° N 00:05:18 10° NE visible
27 Jul -0.7 01:37:26 10° NW 01:37:53 13° NW 01:37:53 13° NW visible
27 Jul -2.7 21:30:13 10° WSW 21:33:22 47° NNW 21:36:32 10° NE visible
27 Jul -1.0 23:08:00 10° NW 23:10:24 19° N 23:12:49 10° NE visible
28 Jul -1.0 00:45:08 10° NW 00:46:53 19° N 00:46:53 19° N visible
28 Jul -1.2 22:15:11 10° WNW 22:17:48 22° NNW 22:20:26 10° NE visible
28 Jul -1.2 23:52:43 10° NW 23:55:06 18° N 23:56:00 17° NNE visible
29 Jul -1.7 21:22:21 10° W 21:25:14 28° NNW 21:28:06 10° NE visible
29 Jul -1.0 23:00:10 10° NW 23:02:27 17° N 23:04:44 10° NE visible
30 Jul -0.9 00:36:45 10° NW 00:37:47 17° NNW 00:37:47 17° NNW visible
30 Jul -1.1 22:07:26 10° NW 22:09:47 18° N 22:12:08 10° NE visible
30 Jul -1.5 23:44:25 10° NW 23:46:59 22° NNE 23:46:59 22° NNE visible
